www.pogodaiklimat.ru

Погода и климат >> Архив погоды >> Австралия >> Moomba Airport


ПОГОДА в Moomba Airport

  • Прогноз погоды в Moomba Airport
  • Монитор погоды в Moomba Airport
  • Климат города

АРХИВ ПОГОДЫ в Moomba Airport

Время (UTC), дата Ветер
(напр.,м/с)
 
Видим.   Явления Облачность Т
(С)
Тd
(С)
f
(%)
Тe
(С)
Тes
(С)
Комфортность P
(гПа)
Po
(гПа)
Тmin
(С)
Tmax
(С)
R
(мм)
R24
(мм)
S
(см)
17 19.06 ЮВ 4 н/о н/о +10.9 +2.7 57 +9 +9 1024.7 1020.0
16 19.06 ЮВ 5 н/о н/о +12.0 +3.0 54 +10 +10 1024.7 1020.0
18 19.06 ЮВ 4 н/о н/о +10.4 +2.5 58 +8 +8 1024.7 1020.0
19 19.06 ЮВ 5 н/о н/о +10.4 +2.5 58 +8 +8 1024.7 1020.0
20 19.06 ЮВ 5 н/о н/о +9.8 +2.2 59 +7 +7 1024.7 1020.0
21 19.06 ЮВ 5 н/о н/о +9.5 +1.7 58 +7 +7 1025.2 1020.5
23 19.06 В 5 н/о н/о +11.7 +2.2 52 +9 +9 1026.0 1021.3
22 19.06 ЮВ 4 н/о н/о +9.0 +1.7 60 +6 +6 1025.6 1020.9
00 20.06 В 6 н/о н/о +15.4 +3.9 46 +14 +14 1026.3 1021.6
01 20.06 В 5 н/о н/о +18.2 +4.4 40 +18 +18 1026.4 1021.7
02 20.06 В 4 н/о н/о +20.2 +4.7 36 +21 +21 комфорт 1025.6 1020.9
03 20.06 В 5 н/о н/о +21.4 +5.7 36 +22 +22 комфорт 1024.5 1019.8
05 20.06 ЮВ 4 н/о н/о +22.1 +4.7 32 +22 +22 комфорт 1022.9 1018.3
04 20.06 ЮВ 4 н/о н/о +22.1 +5.5 34 +23 +23 комфорт 1023.4 1018.8
06 20.06 ЮВ 5 н/о н/о +22.3 +4.4 31 +22 +22 комфорт 1022.7 1018.1
07 20.06 ЮВ 5 н/о н/о +21.5 +4.1 32 +22 +22 комфорт 1022.8 1018.2
08 20.06 ЮВ 4 н/о н/о +20.0 +3.3 33 +21 +21 комфорт 1023.1 1018.5
09 20.06 Ю 4 н/о н/о +17.7 +2.1 35 +17 +17 1023.9 1019.2
11 20.06 Ю 5 н/о н/о +15.6 +2.4 41 +15 +15 1024.7 1020.0
10 20.06 Ю 4 н/о н/о +16.9 +2.9 39 +16 +16 1024.4 1019.7
12 20.06 ЮВ 5 н/о н/о +15.2 +2.4 42 +14 +14 1024.9 1020.2
13 20.06 Ю 4 н/о н/о +12.5 +1.5 47 +11 +11 1024.8 1020.1
14 20.06 ЮВ 4 н/о н/о +13.1 +2.6 49 +12 +12 1024.4 1019.7
15 20.06 ЮВ 4 н/о н/о +11.3 +1.5 51 +9 +9 1024.1 1019.4
17 20.06 Ю 3 н/о н/о +10.0 +1.9 57 +8 +8 1023.8 1019.1
16 20.06 ЮВ 4 н/о н/о +11.2 +2.5 55 +9 +9 1024.0 1019.3
18 20.06 ЮВ 3 н/о н/о +9.7 +1.8 58 +8 +8 1023.9 1019.2
19 20.06 ЮВ 4 н/о н/о +9.3 +1.7 59 +7 +7 1023.9 1019.2
20 20.06 ЮВ 4 н/о н/о +9.0 +1.9 61 +6 +6 1024.1 1019.4
21 20.06 ЮВ 4 н/о н/о +8.4 +2.0 64 +6 +6 1024.7 1020.0
23 20.06 ЮВ 5 н/о н/о +11.0 +3.3 59 +9 +9 1026.4 1021.7
22 20.06 ЮВ 3 н/о н/о +8.7 +2.5 65 +7 +7 1026.0 1021.3
00 21.06 В 7 н/о н/о +15.5 +4.8 49 +14 +14 1026.3 1021.6
01 21.06 В 6 н/о н/о +18.4 +5.6 43 +18 +18 1026.2 1021.5
02 21.06 В 5 н/о н/о +20.1 +5.4 38 +21 +21 комфорт 1025.8 1021.1
03 21.06 В 4 н/о н/о +20.8 +5.2 36 +22 +22 комфорт 1025.0 1020.3
05 21.06 В 3 н/о н/о +22.1 +4.7 32 +22 +22 комфорт 1023.1 1018.5
04 21.06 В 4 н/о н/о +21.7 +4.7 33 +22 +22 комфорт 1024.0 1019.3
06 21.06 ЮВ 4 н/о н/о +21.6 +3.8 31 +22 +22 комфорт 1022.5 1017.9
07 21.06 ЮВ 5 н/о н/о +21.3 +3.5 31 +21 +21 комфорт 1022.7 1018.1
08 21.06 ЮВ 4 н/о н/о +19.7 +3.0 33 +20 +20 1023.1 1018.5
09 21.06 ЮВ 4 н/о н/о +18.5 +2.8 35 +19 +19 1023.8 1019.1
11 21.06 ЮВ 4 н/о н/о +15.8 +2.6 41 +15 +15 1024.6 1019.9
10 21.06 ЮВ 4 н/о н/о +17.0 +2.6 38 +17 +17 1024.2 1019.5
12 21.06 ЮВ 3 н/о н/о +12.1 +1.4 48 +11 +11 1024.4 1019.7
13 21.06 ЮВ 4 н/о н/о +13.5 +2.7 48 +12 +12 1024.4 1019.7
14 21.06 ЮВ 4 н/о н/о +12.0 +2.7 53 +10 +10 1024.1 1019.4
15 21.06 ЮВ 4 н/о н/о +11.7 +2.7 54 +10 +10 1023.9 1019.2
17 21.06 ЮВ 4 н/о н/о +10.2 +3.0 61 +8 +8 1023.2 1018.6
16 21.06 ЮВ 4 н/о н/о +10.7 +2.5 57 +9 +9 1023.4 1018.8
18 21.06 В 4 н/о н/о +9.1 +2.7 64 +6 +6 1022.7 1018.1
19 21.06 В 4 н/о н/о +8.0 +2.5 68 +5 +5 1022.6 1018.0
20 21.06 В 3 н/о н/о +6.5 +1.6 71 +4 +4 1023.1 1018.5
21 21.06 В 3 н/о н/о +6.5 +2.2 74 +4 +4 1023.8 1019.1
23 21.06 В 2 н/о н/о +11.2 +4.0 61 +10 +10 1024.8 1020.1
22 21.06 В 3 н/о н/о +7.4 +2.9 73 +5 +5 1024.5 1019.8
00 22.06 В 3 н/о н/о +15.1 +4.8 50 +15 +15 1025.2 1020.5
01 22.06 В 3 н/о н/о +18.1 +4.7 41 +18 +18 1024.8 1020.1
02 22.06 С 3 н/о н/о +21.2 +3.9 32 +21 +21 комфорт 1024.0 1019.3
03 22.06 С 3 н/о н/о +23.1 +3.1 27 +23 +23 комфорт 1022.7 1018.1
05 22.06 З 2 н/о н/о +23.6 +3.0 26 +23 +23 комфорт 1021.1 1016.5
04 22.06 СЗ 1 н/о н/о +23.3 +2.7 26 +23 +23 комфорт 1021.6 1017.0
06 22.06 ЮЗ 2 н/о н/о +23.3 +2.7 26 +23 +23 комфорт 1020.6 1016.0
07 22.06 ЮЗ 3 н/о н/о +22.6 +2.7 27 +22 +22 комфорт 1020.7 1016.1
08 22.06 Ю 3 н/о н/о +20.3 +2.2 30 +21 +21 комфорт 1021.0 1016.4
09 22.06 Ю 4 н/о н/о +18.7 +1.2 31 +19 +19 1021.6 1017.0
11 22.06 ЮВ 2 н/о н/о +15.4 +0.8 37 +15 +15 1022.0 1017.4
10 22.06 ЮВ 2 н/о н/о +16.5 +1.0 35 +17 +17 1021.8 1017.2
12 22.06 В 2 н/о н/о +12.4 -0.1 42 +12 +12 1022.0 1017.4
13 22.06 ЮВ 3 н/о н/о +12.2 +0.6 45 +11 +11 1021.8 1017.2
14 22.06 В 2 н/о н/о +11.1 +0.2 47 +11 +11 1021.0 1016.4
15 22.06 Ю 2 н/о н/о +10.1 +0.2 50 +9 +9 1020.8 1016.2
17 22.06 штиль 0 н/о н/о +8.8 -0.2 53 +8 +8 1020.7 1016.1
16 22.06 Ю 2 н/о н/о +9.2 -0.1 52 +8 +8 1020.8 1016.2
18 22.06 штиль 0 н/о н/о +8.3 -0.7 53 +8 +8 1020.5 1015.9
19 22.06 штиль 0 н/о н/о +7.3 -1.1 55 +7 +7 1020.1 1015.5
20 22.06 штиль 0 н/о н/о +6.9 -1.0 57 +6 +6 1020.0 1015.4
21 22.06 штиль 0 н/о н/о +7.0 -0.4 59 +7 +7 1020.6 1016.0
23 22.06 СВ 2 н/о н/о +11.7 +0.5 46 +11 +11 1021.2 1016.6
22 22.06 штиль 0 н/о н/о +7.2 -1.0 56 +7 +7 1021.1 1016.5
00 23.06 С 4 н/о н/о +17.8 +1.7 34 +18 +18 1021.7 1017.1
01 23.06 С 4 н/о н/о +21.2 +2.5 29 +21 +21 комфорт 1021.6 1017.0
02 23.06 СЗ 4 н/о н/о +23.7 +3.6 27 +23 +23 комфорт 1021.1 1016.5
03 23.06 З 3 н/о н/о +24.1 +3.4 26 +23 +23 комфорт 1020.4 1015.8
05 23.06 З 4 н/о н/о +24.5 +3.8 26 +24 +24 комфорт 1018.4 1013.8
04 23.06 З 4 н/о н/о +24.3 +3.6 26 +24 +24 комфорт 1019.1 1014.5
06 23.06 З 4 н/о н/о +24.1 +3.4 26 +23 +23 комфорт 1018.2 1013.6
07 23.06 З 3 н/о н/о +23.9 +3.2 26 +23 +23 комфорт 1018.0 1013.4
08 23.06 ЮЗ 2 н/о н/о +21.2 +2.5 29 +21 +21 комфорт 1017.9 1013.3
09 23.06 штиль 0 н/о н/о +17.7 +1.7 34 +18 +18 1018.2 1013.6
11 23.06 ЮВ 2 н/о н/о +15.9 +0.1 34 +16 +16 1018.9 1014.3
10 23.06 Ю 1 н/о н/о +17.3 +2.1 36 +19 +19 1018.9 1014.3
12 23.06 В 2 н/о н/о +14.0 +0.3 39 +14 +14 1019.2 1014.6
13 23.06 В 2 н/о н/о +12.7 +0.8 44 +13 +13 1019.1 1014.5
14 23.06 штиль 0 н/о н/о +12.3 +0.7 45 +12 +12 1018.9 1014.3
15 23.06 штиль 0 н/о н/о +10.6 -0.5 46 +10 +10 1018.7 1014.1
17 23.06 В 2 н/о н/о +9.4 -1.3 47 +8 +8 1018.0 1013.4
16 23.06 штиль 0 н/о н/о +10.0 -0.8 47 +10 +10 1018.5 1013.9
18 23.06 В 2 н/о н/о +9.3 -0.3 51 +8 +8 1018.0 1013.4
19 23.06 СВ 3 н/о н/о +10.1 +0.4 51 +8 +8 1017.8 1013.2
20 23.06 С 4 н/о н/о +10.4 +0.4 50 +8 +8 1017.9 1013.3
21 23.06 С 4 н/о н/о +9.9 +0.5 52 +8 +8 1018.3 1013.7
23 23.06 В 2 н/о н/о +12.4 +0.5 44 +12 +12 1019.4 1014.8
22 23.06 штиль 0 н/о н/о +8.9 -0.4 52 +9 +9 1018.9 1014.3
00 24.06 С 2 н/о н/о +16.6 +1.5 36 +17 +17 1019.7 1015.1
01 24.06 С 3 н/о н/о +21.3 +2.6 29 +21 +21 комфорт 1019.5 1014.9
02 24.06 СЗ 3 н/о н/о +23.6 +3.0 26 +23 +23 комфорт 1019.0 1014.4
03 24.06 З 3 н/о н/о +23.8 +3.2 26 +23 +23 комфорт 1018.2 1013.6
05 24.06 ЮЗ 3 н/о н/о +24.1 +3.4 26 +23 +23 комфорт 1016.9 1012.3
04 24.06 З 4 н/о н/о +24.7 +3.4 25 +24 +24 комфорт 1017.4 1012.8
06 24.06 ЮЗ 3 н/о н/о +23.6 +3.0 26 +23 +23 комфорт 1016.9 1012.3
07 24.06 ЮЗ 3 н/о н/о +22.9 +2.9 27 +23 +23 комфорт 1017.1 1012.5
08 24.06 штиль 0 н/о н/о +19.9 +2.3 31 +20 +20 1017.2 1012.6
09 24.06 штиль 0 н/о н/о +16.2 +0.7 35 +16 +16 1017.6 1013.0
11 24.06 штиль 0 н/о н/о +14.6 +1.5 41 +15 +15 1018.1 1013.5
10 24.06 штиль 0 н/о н/о +16.0 +1.7 38 +16 +16 1017.8 1013.2
12 24.06 штиль 0 н/о н/о +14.3 +1.9 43 +14 +14 1018.1 1013.5
13 24.06 С 3 н/о н/о +13.9 +1.9 44 +13 +13 1018.2 1013.6
14 24.06 штиль 0 н/о н/о +12.2 +1.2 47 +12 +12 1017.9 1013.3
15 24.06 С 3 н/о н/о +13.4 +2.3 47 +13 +13 1017.8 1013.2
17 24.06 З 2 н/о н/о +11.0 +1.0 50 +10 +10 1017.7 1013.1
16 24.06 штиль 0 н/о н/о +11.1 +1.1 50 +11 +11 1017.8 1013.2
18 24.06 З 2 н/о н/о +11.4 +1.9 52 +11 +11 1017.7 1013.1
19 24.06 З 3 н/о н/о +11.2 +1.7 52 +10 +10 1017.4 1012.8
20 24.06 З 2 н/о н/о +10.4 +1.5 54 +9 +9 1017.6 1013.0
21 24.06 ЮЗ 2 н/о н/о +10.0 +1.4 55 +9 +9 1018.4 1013.8
23 24.06 Ю 2 н/о н/о +13.5 +2.4 47 +13 +13 1019.6 1015.0
22 24.06 штиль 0 н/о н/о +9.9 +1.0 54 +10 +10 1019.0 1014.4
00 25.06 Ю 3 н/о н/о +17.1 +3.4 40 +17 +17 1020.7 1016.1
01 25.06 Ю 4 н/о н/о +18.8 +3.4 36 +19 +19 1020.6 1016.0
02 25.06 Ю 3 н/о н/о +20.3 +4.4 35 +21 +21 комфорт 1020.2 1015.6
03 25.06 ЮЗ 5 н/о н/о +20.7 +4.3 34 +21 +21 комфорт 1020.1 1015.5
05 25.06 ЮЗ 4 н/о н/о +21.7 +3.9 31 +22 +22 комфорт 1018.7 1014.1
04 25.06 ЮЗ 5 н/о н/о +21.4 +4.0 32 +22 +22 комфорт 1019.1 1014.5
06 25.06 ЮЗ 5 н/о н/о +21.6 +4.2 32 +22 +22 комфорт 1018.8 1014.2
07 25.06 ЮЗ 4 н/о н/о +21.5 +3.7 31 +22 +22 комфорт 1018.9 1014.3
08 25.06 ЮЗ 3 н/о н/о +19.8 +3.5 34 +21 +21 комфорт 1019.2 1014.6
09 25.06 ЮЗ 3 н/о н/о +18.1 +2.4 35 +18 +18 1019.8 1015.2
11 25.06 ЮЗ 3 н/о н/о +15.3 +3.8 46 +15 +15 1020.7 1016.1
10 25.06 ЮЗ 3 н/о н/о +16.6 +3.0 40 +16 +16 1020.1 1015.5
12 25.06 ЮЗ 3 н/о н/о +14.3 +3.7 49 +14 +14 1020.8 1016.2
13 25.06 Ю 3 н/о н/о +14.4 +3.2 47 +14 +14 1021.0 1016.4
14 25.06 ЮЗ 1 н/о н/о +13.7 +3.5 50 +15 +15 1021.0 1016.4
15 25.06 Ю 4 н/о н/о +14.8 +4.2 49 +14 +14 1020.7 1016.1
17 25.06 Ю 4 н/о н/о +13.2 +4.6 56 +12 +12 1020.8 1016.2
16 25.06 Ю 4 н/о н/о +14.3 +4.9 53 +13 +13 1020.7 1016.1
18 25.06 Ю 4 н/о н/о +12.8 +4.0 55 +11 +11 1021.1 1016.5
19 25.06 Ю 4 н/о н/о +12.0 +3.8 57 +10 +10 1021.2 1016.6
20 25.06 Ю 4 н/о н/о +11.4 +3.4 58 +9 +9 1022.0 1017.4
21 25.06 Ю 5 н/о н/о +11.4 +3.7 59 +9 +9 1022.2 1017.6
23 25.06 ЮВ 5 н/о н/о +12.6 +3.8 55 +11 +11 1023.8 1019.1
22 25.06 Ю 5 н/о н/о +10.8 +3.6 61 +8 +8 1023.1 1018.5
00 26.06 ЮВ 6 н/о н/о +14.8 +4.2 49 +13 +13 1024.1 1019.4
01 26.06 ЮВ 6 н/о н/о +17.8 +5.1 43 +17 +17 1023.9 1019.2
02 26.06 В 6 н/о н/о +19.9 +5.2 38 +20 +20 1023.4 1018.8
03 26.06 В 5 н/о н/о +21.0 +5.4 36 +22 +22 комфорт 1021.9 1017.3
05 26.06 ЮВ 5 н/о н/о +20.8 +4.8 35 +22 +22 комфорт 1020.4 1015.8
04 26.06 В 4 н/о н/о +20.6 +4.6 35 +21 +21 комфорт 1021.0 1016.4
06 26.06 ЮВ 4 н/о н/о +20.8 +4.8 35 +22 +22 комфорт 1020.7 1016.1
07 26.06 ЮВ 3 н/о н/о +20.7 +4.7 35 +22 +22 комфорт 1021.3 1016.7
08 26.06 Ю 3 н/о н/о +19.8 +4.7 37 +21 +21 комфорт 1021.8 1017.2
09 26.06 Ю 3 н/о н/о +18.5 +6.7 46 +19 +19 1022.4 1017.8
11 26.06 Ю 5 н/о н/о +15.5 +10.9 74 +14 +14 1023.0 1018.4
10 26.06 Ю 4 н/о н/о +17.6 +7.9 53 +17 +17 1023.4 1018.8
12 26.06 Ю 5 н/о н/о +14.8 +10.6 76 +13 +13 1023.3 1018.7
13 26.06 Ю 4 н/о н/о +14.6 +9.8 73 +14 +14 1023.2 1018.6
14 26.06 Ю 5 н/о н/о +14.2 +9.6 74 +13 +13 1022.3 1017.7
15 26.06 Ю 3 н/о н/о +13.5 +9.9 79 +12 +12 1022.8 1018.2
16 26.06 Ю 4 н/о н/о +13.3 +9.7 79 +12 +12 1022.3 1017.7

 

Местоположение метеостанции Moomba Airport (Южная Австралия, Австралия): широта -28.10 долгота 140.20 высота над уровнем моря 38 м.

В архиве по умолчанию представлена погода в Moomba Airport за последнюю неделю. Архивные данные за месяц целиком и за предыдущие месяцы, начиная с января 2011 года, Вы можете получить, выбрав интересующий диапазон дат из раскрывающегося списка и нажав кнопку "Ввод!".

Внимание! Время в таблицах - всемирное. Для получения местного времени необходимо прибавить поправку, которая в Moomba Airport равна 9.5 ч.

Смотрите также архив погоды в соседних городах и на ближайших метеорологических станциях:

Погода в Ballera Gas Field (Квинсленд, Австралия) (176 км)
Погода в Tibooburra Airport (Новый Южный Уэльс, Австралия) (235 км)
Погода в Birdsville Airport (Квинсленд, Австралия) (259 км)
Погода в Marree Aero (Южная Австралия, Австралия) (271 км)
Погода в Leigh Creek Airport (Южная Австралия, Австралия) (327 км)
Погода в Thargomindah Airport (Квинсленд, Австралия) (355 км)
Погода в Fowlers Gap Aws (Новый Южный Уэльс, Австралия) (362 км)
Погода в White Cliffs Aws (Новый Южный Уэльс, Австралия) (413 км)
Погода в Olympic Dam Aerodrome (Южная Австралия, Австралия) (417 км)
Погода в Broken Hill Airport (Новый Южный Уэльс, Австралия) (450 км)

Пояснения к столбцам:

Ветер - указаны скорость ветра в м/с - средняя за 10 мин, порывы в срок и между сроками (в фигурных скобках) и направление, откуда дует ветер: С - северный, СВ - северо-восточный, В - восточный, ЮВ - юго-восточный, Ю - южный, ЮЗ - юго-западный, З - западный, СЗ - северо-западный.
Видимость - горизонтальная дальность видимости в метрах или километрах. При видимости от 1 до 10 км при отсутствии осадков обычно наблюдается дымка, при ухудшении видимости до 1 км и менее - туман. В сухую погоду видимость может ухудшаться дымом, пылью или мглою.
Явления - указаны атмосферные явления, наблюдавшиеся в срок или в последний час перед сроком; фигурными скобками обозначены явления, наблюдавшиеся между сроками (за 1-3 часа до срока); квадратными скобками обозначены град или гололедные отложения с указанием их диаметра в мм.
Облачность - указаны через наклонную черту общая и нижняя облачность в баллах и высота нижней границы облаков в метрах; квадратными скобками обозначены формы облаков: Ci - перистые, Cs - перисто-слоистые, Cc - перисто-кучевые, Ac - высококучевые, As - высокослоистые, Sc - слоисто-кучевые, Ns - слоисто-дождевые, Cu - кучевые, Cb - кучево-дождевые. Подробнее классификацию облаков см. в Атласе облаков (PDF).
T - Температура воздуха - температура, измеренная на высоте 2 м над землей.
Td - Температура точки росы - температура, при понижении до которой содержащийся в воздухе водяной пар достигнет насыщения.
f - Относительная влажность воздуха - влажноcть воздуха, измеренная на высоте 2 м над землей.
Te - Эффективная температура - температура, которую ощущает одетый по сезону человек в тени. Характеристика душности погоды. При расчете учитывается влияние влажности воздуха и скорости ветра на теплоощущения человека.
Tes - Эффективная температура на солнце - температура, которую ощущает человек, с поправкой на солнечный нагрев. Характеристика знойности погоды. Зависит от высоты солнца над горизонтом, облачности и скорости ветра. Ночью, в пасмурную погоду, а также при ветре 12 м/с и более поправка равна нулю.
P - Атмосферное давление - приведенное к уровню моря атмосферное давление.
Po - Атмосферное давление - измеренное на уровне метеостанции атмосферное давление.
Tmin - Минимальная температура - минимум температуры воздуха на высоте 2 м над землей.
Tmax - Максимальная температура - максимум температуры воздуха на высоте 2 м над землей.
R - Количество осадков - Количество выпавших осадков за период времени, мм. При наведении курсора мыши на число - период времени, за который выпало указанное количество осадков.
R24 - Количество осадков - Количество выпавших осадков за 24 часа, мм.
S - Снежный покров - Высота снежного покрова, см. При наведении курсора мыши на число - состояние снежного покрова и степень покрытия местности в баллах.